Regional Weather Roundup
Issued by NWS Wakefield, VA

Home | Current Version | Previous Version | Graphics & Text | Print | Product List | Glossary On
Versions: 1 2 3 4 5 6 7 8 9 10 11 12 13 14 15 16 17 18 19 20 21 22 23 24 25 26 27 28 29 30 31 32 33 34 35 36 37 38 39 40 41 42 43 44 45 46 47 48 49 50
190
ASUS41 KAKQ 251015
RWRAKQ

REGIONAL WEATHER ROUNDUP
NATIONAL WEATHER SERVICE WAKEFIELD VA
600 AM EDT SUN SEP 25 2016

Note: "fair" indicates few or no clouds below 12,000 feet with no
significant weather and/or obstructions to visibility. * = Denotes
station may not report precipitation (e.g., rain,snow,etc.),
thunder or fog.

VAZ042-051-052>054-056-251100-
NORTHERN VIRGINIA

CITY           SKY/WX    TMP DP  RH WIND       PRES   REMARKS
WASH NATIONAL  PTCLDY    60  50  69 NE13      30.20R
DULLES         PTCLDY    56  48  74 N7        30.20R
FORT BELVOIR   MOCLDY    59  54  82 VRB2      30.20R
QUANTICO         N/A     63  60  90 N8        30.19R
FREDERICKSBRG* MOCLDY    65  65 100 CALM      30.17R
STAFFORD*      MOCLDY    62  61  98 N5        30.22R
WARRENTON      CLOUDY    62  56  82 N5        30.18R
CULPEPER*      CLOUDY    64  62  94 NE3       30.19R
MANASSAS*      CLOUDY    61  59  94 N7        30.20R
LEESBURG*      CLEAR     55  50  82 N5        30.22R
WINCHESTER     CLEAR     52  45  76 CALM      30.20R
FRONT ROYAL*   CLOUDY    55  50  82 CALM      30.19R
LURAY*         CLOUDY    61  54  77 NE6       30.18R
$$

VAZ048-049-060>072-079>083-251100-
CENTRAL AND SOUTH CENTRAL VIRGINIA

CITY           SKY/WX    TMP DP  RH WIND       PRES   REMARKS
RICHMOND       MOCLDY    64  61  90 N6        30.15R
CHESTERFIELD*  CLOUDY    66  50  55 CALM      30.17R
PETERSBURG*    CLOUDY    68  63  84 NE5       30.15S
HANOVER        MOCLDY    63  60  90 CALM      30.18R
TAPPAHANNOCK*  PTCLDY    60  60 100 CALM      30.16S
QUINTON*       PTSUNNY   64  62  92 N3        30.15R
CHARLOTTSVILLE CLOUDY    67  62  84 NW3       30.17R
GORDONSVILLE*  CLOUDY    64  64 100 CALM      30.17R
ORANGE*          N/A     64  64 100 CALM      30.19R
LOUISA*        CLOUDY    68  66  94 CALM      30.16S
BUMPASS*       CLOUDY    64  64 100 CALM      30.17R
FARMVILLE*     CLOUDY    68  67  95 NE5       30.15R
CREWE*         CLOUDY    65  64  94 CALM      30.16R
FORT PICKETT*  CLOUDY    66  64  94 N5        30.15R
CHASE CITY*    CLOUDY    68  66  95 NE3       30.14S
CLARKSVILLE*   CLOUDY    68  68 100 NE6       30.13S
SOUTH HILL*    CLOUDY    67  66  96 N3        30.20R
LAWRENCEVILLE* CLOUDY    67  65  94 MISG      30.14R
EMPORIA*       CLOUDY    66  64  94 N3        30.15S
$$

VAZ088>098-251100-
SOUTHEAST VIRGINIA

CITY           SKY/WX    TMP DP  RH WIND       PRES   REMARKS
NORFOLK        CLOUDY    69  61  75 NE10      30.12S
VIRGINIA BEACH MOCLDY    68  59  73 NE9       30.12R
NORFOLK NAVAL  NOT AVBL
WEST POINT*    MOCLDY    65  61  86 CALM      30.16S
SALUDA*        PTSUNNY   66  60  81 N6        30.14S
NEWPORT NEWS   CLOUDY    68  62  81 NE5       30.14R
LANGLEY AFB    CLOUDY    68  61  76 NE10      30.13S
FORT EUSTIS    CLOUDY    68  63  84 NE3       30.11S
WILLIAMSBURG*  CLEAR     66  66 100 CALM      30.14F
HR EXEC AP*    CLOUDY    68  63  83 NE3       30.15R
FRANKLIN*      CLOUDY    67  65  93 CALM      30.14R
US460-WAKEFLD  CLOUDY    67  63  87 CALM      30.14R
$$

VAZ020-022-025-037-045-251100-
WEST CENTRAL AND SOUTHWEST VIRGINIA

CITY           SKY/WX    TMP DP  RH WIND       PRES   REMARKS
STAUNTON*      CLOUDY    62  61  96 E3        30.20R FOG
WAYNESBORO*    CLOUDY    61  60  97 E9        30.19R
HOT SPRINGS VA CLOUDY    59  59 100 CALM      30.23S FOG
LYNCHBURG      CLOUDY    67  64  90 NE6       30.18R
DANVILLE       CLOUDY    69  65  86 NE9       30.14R
SOUTH BOSTON*  CLOUDY    68  67  96 CALM      30.14R
MARTINSVILLE   CLOUDY    69  63  82 CALM      30.17S
ROANOKE        CLOUDY    69  63  81 SE8       30.19R
BLACKSBURG     CLOUDY    67  66  97 E5        30.22S FOG
DUBLIN*        CLOUDY    67  65  94 CALM      30.20R
MARION*        CLEAR     60  59  96 CALM      30.23S FOG
HILLSVILLE*    PTCLDY    62  62 100 CALM      30.19S FOG
RICHLANDS*     FAIR      63  62  97 CALM      30.19S
WISE*          CLEAR     64  61  88 CALM      30.20S
ABINGDON*      CLEAR     63  61  93 E7        30.16S
$$

MDZ021>025-VAZ099-100-251100-
SOUTHERN MARYLAND AND THE DELMARVA PENINSULA

CITY           SKY/WX    TMP DP  RH WIND       PRES   REMARKS
PATUXENT RIVER MOCLDY    59  57  93 CALM      30.16R
BAY BRIDGE APT CLEAR     59  46  63 MISG      30.18R
LEONARDTOWN    CLEAR     55  54  94 CALM      30.18R
DOVER          CLEAR     51  51 100 N7        30.17R
GEORGETOWN     CLEAR     56  53  90 N3        30.17R
EASTON         CLEAR     54  50  87 CALM      30.22
CAMBRIDGE      CLEAR     55  52  88 N5        30.17R
SALISBURY      MOCLDY    56  56 100 NW3       30.16R FOG
OCEAN CITY     CLEAR     57  55  93 NW6       30.15R
WALLOPS ISLAND CLEAR     58  57  97 NW7       30.16R
ACCOMACK*      PTCLDY    61  56  84 CALM      30.15R
$$

NCZ012>017-030>032-251100-
NORTH CENTRAL AND EASTERN NORTH CAROLINA

CITY           SKY/WX    TMP DP  RH WIND       PRES   REMARKS
ROANOKE RAPIDS CLOUDY    68  66  94 NE5       30.13R
RALEIGH        CLOUDY    72  68  87 E8        30.12R
ELIZABETH CITY CLOUDY    70  65  84 NE13      30.12R
AHOSKIE*       NOT AVBL
EDENTON*       DRIZZLE   70  70 100 CALM      30.12R
CURRITUCK*     CLOUDY    70  65  85 NE7       30.12R
KILL DEVIL HLS NOT AVBL
MANTEO         CLOUDY    71  65  80 NE12      30.10R
CAPE HATTERAS  CLOUDY    74  68  81 VRB6      30.07R
TARBORO*       CLOUDY    70  67  90 NE3       30.13R
GOLDSBORO      PTCLDY    72  72 100 E6        30.08R
WASHINGTON     MOCLDY    70  67  90 NE7       30.11R
GREENVILLE     CLOUDY    72  70  94 NE3       30.12R
NEW BERN       CLOUDY    73  68  84 NE7       30.10R
WILMINGTON     CLEAR     69  69 100 NE5       30.07R FOG
$$

VAZ048-251100-
ELSEWHERE

CITY           SKY/WX    TMP DP  RH WIND       PRES   REMARKS
HARRISBURG PA  CLEAR     50  45  83 NW3       30.22R
BALTIMORE      PTCLDY    51  48  89 W3        30.20R
ANNAPOLIS      CLEAR     62  56  80 N6        30.18R
ANDREWS AFB    CLEAR     55  50  84 NE7       30.18R
PHILADELPHIA   CLEAR     55  41  59 N10       30.19R
HENDERSON NC   CLOUDY    65  64  97 NE8       30.13S FOG
GREENSBORO     CLOUDY    70  69  97 NE9       30.13R FOG
ROCKY MOUNT    CLOUDY    70  68  93 NE5       30.12R
$$

VAZ100-251100-
MARINE

STATION/POSITION TIME  TEMP    WIND        PRES    WAVE   SWELL
                       AIR SEA DIR/SP/G            HT/PER HT/PER
                 (UTC) (F)     (DEG/KT/KT) (MB)    (FT/S) (FT/S)
BRANDYWINE LGT   0900   62      40/ 20/ 22   N/A
CAPE MAY NJ      0900   57 73   30/  3/  8 1020.3R
LEWES DE         0900   65 72   30/ 17/ 18 1020.4R
OCEAN-CITY-INLET 0900   62 73  350/  6/  7 1020.6R
WACHAPREAGUE VA  0900   64 76  350/  4/  7 1020.3R
THOMAS POINT MD  1000   64 75   40/ 17/ 21 1023.2R
GOOSES REEF MD   1000   66 75   70/ 14/ 17 1022.1R   2/ 3
COVE POINT MD    0900   66      50/  9/ 12 1021.4R
SOLOMONS ISLAND  0900   64 77  330/  4/  5   N/A
BISHOPS HEAD MD  0900   62 72  340/  5/  6 1021.1R
PINEY POINT MD   0900           40/  4/  5   N/A
POTOMAC MD       1000   67 75   10/  8/ 10 1020.3R   1
CAMBRIDGE MD     0900   62 76   20/  9/ 11 1020.3R
LEWISETTA VA     0900   68 74   50/  6/  9 1020.4R
RAPPAHANNOCK LGT 0900           50/ 11/ 12 1020.7R
STINGRAY PT      1000   70 76  360/ 10/ 12 1021.0R   1/ 3
YORK RVR RNG VA  0900   70      60/ 12/ 14 1019.7R
YORKTOWN VA      0900   70 77   50/  9/ 12 1019.9R
JAMESTOWN VA     1000   68 78   30/  4/  6   N/A     0
DOMINION TERM VA 0900   70      40/  4/  6 1020.1R
KIPTOPEKE VA     0900      77   30/  4/  7   N/A
CHES BAY BRIDGE  0900   70 77   20/ 12/ 15 1019.6R
CAPE HENRY VA    0900   70      40/ 14/ 19   N/A
WILLOUBY STN VA  0900   69      40/ 11/ 13   N/A
CAPE HENRY BUOY  0912      76                N/A     5/11   2/11
1ST LANDING BUOY 1000   71 76   60/ 12/ 16 1020.0R   3/ 4
CAPE CHARLES BUO 0926      76                N/A     4/12   2/12
OFFSHORE WE BUOY 0921      75                N/A     5/11   2/11
64NM E OF VA BCH 0950   71 74   20/ 17/ 19 1018.7R   6/10   3/10
DUCK PIER NC     0900   72 77   40/ 16/ 19 1018.3R
44056 DUCK FRF   0911      77                N/A     5/10   2/11
OREGON INLET NC  0900   72 78   20/ 12/ 16 1018.3R
HATTERAS NC      0900   74 81   40/ 11/ 13 1017.6R
DIAMOND SHLS NC  0950   76 85   20/ 16/ 17 1017.4R   6/11   5/11
CAPE LOOKOUT NC  1000   77      50/ 14/ 15 1017.9R
$$




USA.gov is the U.S. government's official web portal to all federal, state and local government web resources and services.